Temp
16 14 14 13 13 13 13 13 13 13 12 12 12 11 11 10 9 9 8 6 6 6
15 15 14 13 13 13 13 12 12 12 12 11 11 11 10 10 9 7 7 6 5 5
15 15 14 13 13 12 12 11 11 12 11 11 11 10 10 9 8 7 6 5 5 5
15 15 13 13 13 12 12 11 11 11 10 11 10 10 9 8 7 7 6 5 6 5
14 13 12 12 12 11 11 10 10 10 10 10 10 9 8 7 6 6 5 6 5 5
13 12 11 12 11 11 11 10 10 10 9 9 9 8 7 7 7 6 5 5 5 4
12 10 11 11 11 10 10 10 9 8 8 8 7 7 7 6 6 5 5 5 4 3
11 10 10 10 11 9 9 8 9 8 7 7 7 7 5 5 5 5 5 4 3 3
10 10 10 10 9 9 7 8 7 7 6 6 6 4 4 5 4 4 4 3 3 2
9 10 9 8 7 6 7 6 6 5 5 5 4 4 4 4 4 4 3 3 3 2
9 9 8 7 6 6 5 5 5 4 4 4 3 3 3 3 3 3 3 2 1 1
8 8 7 6 5 4 5 4 3 4 3 2 2 3 3 3 3 2 2 1 1 0
7 7 7 6 4 4 4 3 3 1 1 2 2 2 2 3 2 2 1 1 0 -0
7 7 6 4 3 3 3 2 1 0 1 0 1 2 2 2 1 1 1 0 0 -0
Height
1468 1477 1482 1487 1490 1493 1496 1499 1504 1507 1512 1515 1518 1520 1521 1522 1522 1522 1522 1522 1522 1522
1464 1469 1476 1481 1487 1491 1494 1496 1500 1503 1506 1510 1513 1515 1517 1517 1518 1518 1519 1519 1519 1518
1455 1460 1468 1475 1482 1486 1489 1492 1495 1498 1501 1504 1508 1511 1512 1513 1513 1514 1515 1515 1515 1514
1446 1452 1461 1468 1476 1479 1482 1485 1489 1491 1497 1498 1503 1505 1507 1509 1509 1510 1511 1511 1510 1510
1440 1444 1452 1461 1465 1472 1476 1480 1484 1488 1492 1493 1495 1499 1502 1503 1504 1505 1507 1506 1506 1505
1436 1442 1447 1453 1457 1464 1468 1476 1479 1482 1487 1490 1490 1493 1497 1498 1499 1502 1502 1502 1503 1502
1432 1436 1443 1450 1451 1458 1464 1469 1474 1480 1482 1483 1490 1489 1492 1493 1496 1498 1498 1498 1499 1498
1428 1432 1439 1446 1445 1454 1459 1463 1471 1475 1477 1482 1482 1487 1488 1490 1493 1493 1494 1495 1495 1494
1422 1427 1433 1438 1441 1449 1454 1461 1467 1470 1473 1477 1479 1482 1482 1487 1490 1490 1491 1491 1491 1491
1414 1420 1425 1433 1440 1445 1452 1458 1462 1468 1473 1473 1474 1474 1481 1484 1486 1487 1488 1488 1488 1486
1409 1415 1420 1427 1437 1447 1452 1456 1460 1467 1467 1467 1468 1474 1477 1480 1482 1484 1483 1484 1484 1483
1400 1409 1417 1425 1433 1443 1451 1455 1461 1464 1461 1462 1468 1472 1474 1476 1478 1480 1481 1481 1480 1478
1396 1403 1412 1420 1429 1440 1448 1454 1459 1458 1458 1461 1467 1469 1471 1473 1475 1477 1478 1478 1478 1475
1391 1399 1408 1416 1430 1438 1445 1450 1453 1454 1455 1461 1464 1466 1469 1471 1474 1475 1475 1475 1473 1471
Wind_Speed
41 43 44 42 41 38 36 34 32 29 25 21 18 14 12 9 9 9 8 9 11 11
43 46 44 43 40 36 33 33 31 28 26 22 17 14 11 9 8 8 9 9 10 11
45 46 48 43 38 37 35 34 32 30 27 22 18 14 11 8 8 8 9 9 8 8
47 45 46 45 41 40 38 37 34 31 27 22 17 14 11 8 9 8 7 7 7 8
47 50 48 50 46 42 40 38 35 31 26 21 17 14 10 10 8 8 8 7 7 9
51 48 49 51 47 46 44 40 35 30 27 20 17 14 11 11 8 8 7 6 8 11
49 50 50 50 51 49 44 39 33 29 23 18 17 13 11 7 7 6 6 7 8 11
45 48 50 53 51 46 40 34 32 29 24 21 18 12 8 7 9 7 6 6 6 9
50 53 54 52 47 42 38 35 31 25 24 23 16 10 4 11 8 6 4 3 6 10
52 54 51 47 39 39 37 34 29 26 25 18 10 2 12 9 7 4 3 4 9 13
53 54 51 42 41 36 32 32 27 28 19 10 3 12 11 10 6 3 2 6 10 12
53 54 48 46 38 35 34 30 30 22 12 9 13 14 12 10 6 2 2 5 9 12
55 55 50 44 40 36 32 32 26 18 11 12 16 15 13 10 6 2 1 5 8 12
56 53 50 42 38 37 35 28 20 16 13 18 17 17 13 8 5 1 1 5 10 13
Wind_Direction
210 209 214 215 211 207 204 202 199 200 201 206 212 219 235 252 263 272 277 276 279 288
209 212 214 217 214 211 205 202 199 201 202 207 215 225 235 246 255 258 263 272 282 289
210 215 213 214 211 209 204 202 201 203 203 207 213 221 235 240 248 253 260 269 273 289
213 213 206 206 210 208 205 204 203 202 206 205 210 219 228 230 234 240 248 262 280 297
206 200 201 204 204 202 203 203 202 204 204 202 204 215 214 224 224 236 246 265 289 291
202 198 199 200 199 200 201 199 201 202 201 203 201 204 204 214 218 229 248 283 297 298
201 199 199 199 196 196 198 201 202 201 196 195 205 195 204 202 225 235 263 297 304 305
207 203 200 199 197 197 200 203 200 194 192 192 196 184 187 221 225 248 282 301 312 316
202 200 197 196 200 202 202 197 193 190 188 192 177 187 218 217 232 254 271 302 322 325
197 195 198 198 202 196 190 190 187 188 188 177 192 254 207 211 224 226 250 315 335 338
200 201 197 200 192 189 190 190 186 188 175 197 182 202 198 202 194 211 329 348 340 336
200 199 196 191 193 190 192 188 186 185 185 177 197 196 191 183 184 181 12 340 337 337
198 196 194 193 188 190 187 184 189 187 176 194 201 183 180 178 180 161 8 349 337 340
196 195 195 185 186 186 183 184 185 182 187 202 186 177 178 177 174 181 348 348 351 350